ARIANE 2 DEB, 42485

Orbit data source: Space-Track

ARIANE 2 DEB, 42485 is space debris in HEO originally from a launch on Fri, 27 Jan 1989 UTC launched from the French Guiana (FRGUI). Debris objects in space refer to the collection of defunct objects orbiting the Earth. Examples of debris include non-operational satellites, rocket bodies, and fragments generated from explosions, collisions, or faulty payload assembly.

Loading next visibility...
Identifier
42485, 1989-006CM
Orbit
HEO
Country
Flag of FRFR
Related business
Manufacturer
EADS/LV
Mission
Spacecraft
Bus & Motor
Unknown
Mass
Unknown
Launch date (UTC)
1989-01-27 (37 years ago)
Launch vehicle
Unknown
Launch site
French Guiana (FRGUI)
Object type
Payload
Rocket body
Debris
Shape & HBR
Unknown shape, 0.3 m
Radar Cross Section
Medium (>0.1 m² and <1 m²)

Expand to show TLE details & history
Last TLE update: 9 hours ago

TLE from 9 hours ago
0 ARIANE 2 DEB
1 42485U 89006CM  25288.77335763 -.00000095  00000-0  00000-0 0  9997
2 42485   8.4358 113.4661 6700498  36.7494 125.8582  2.17667311 93245
Epoch: 2025-10-15T18:33Z
TLE epoch observation values (Epoch: 2025-10-15T18:33:38.099Z)
Latitude
-3.10445°
Longitude
12.01436°
Altitude
32,857.493 km
Speed
2.114 km/s
True Right ascension
20h 59m 51s
True Declination
-3° 06' 04"
Sunlit
Object was in daylight at epoch
Visualization orbit readout
Latitude
Unknown
Longitude
Unknown
Altitude
Unknown
Speed
Unknown
Apparent Right ascension
Unknown
Apparent Declination
Unknown
Sunlit
N/A
Visualization observer readout
Local Sidereal Time
22:21:42
Azimuth
Unknown
Elevation
Unknown
Doppler factor
Unknown
Orbital elements
Apogee altitude
35,630.726 km
Perigee altitude
1,921.515 km
Semi-major axis
25,154.258 km
Eccentricity
0.67005
Inclination
8.4358°
RAAN
113.4661°
Arg. of periapsis
36.7494°
True anomaly
164.928°
Mean anomaly
125.8582°
Eccentric anomaly
146.85107°
Mean motion
0.54403 °/min
Orbital period
661.72 mins
BSTAR
0
Loading maneuver chart data...
Computing Atmospheric mass density...
Loading historical data...
Loading historical data...
Loading historical data...
Loading historical data...
Loading historical data...
Loading historical data...
Loading historical data...

Documentation

Showing up to 5 results
|